Location: Góry Miechowskie
(50.3599°N, 20.1803°E)
Time: 14:00:44
(UTC+00:00)

Vanguard 3 - Visible Passes

Search period start: 13 September 2024 00:00
Search period end: 23 September 2024 00:00
Orbit: 507 x 3225 km, 33.4° (Epoch: 12 September)

Date Brightness Start Highest point End Pass type
(mag) Time Alt. Az. Time Alt. Az. Time Alt. Az.
14 Sep 11.5 03:08:43 10° SSE 03:17:52 15° SE 03:26:55 10° ESE visible
16 Sep 11.4 02:40:07 10° SSE 02:49:36 16° SE 02:59:22 10° ESE visible
17 Sep 11.2 03:27:46 10° SSW 03:41:17 26° SE 03:55:08 10° E visible
18 Sep 11.3 02:11:45 10° SSE 02:21:14 17° SE 02:31:24 10° ESE visible
19 Sep 11.1 02:59:37 10° SSW 03:12:46 27° SE 03:27:02 10° E visible
20 Sep 11.1 01:43:39 10° SSE 01:52:49 17° SE 02:03:01 10° E visible
20 Sep 11.0 03:49:39 10° SSW 04:04:44 36° SSE 04:20:51 10° E visible
21 Sep 10.9 02:31:39 10° SSW 02:44:11 27° SE 02:58:36 10° E visible
22 Sep 10.9 01:15:45 10° SSE 01:24:22 17° SE 01:34:18 10° E visible
22 Sep 10.9 03:21:40 10° SSW 03:36:01 36° SSE 03:52:27 10° E visible
